CW1238 Weather Reports


Display with metric or nautical units.
time (UTC)temp
F
wind
direction
speed
MPH
gust
MPH
rain 1hr
in
rain 24hr
in
rain mn
in
humidity
%
barometer
mb
20190524124021 54 112 4.0 4.0 0.00 0.70 0.00 92 998.8
20190524122020 53 68 4.0 4.0 0.00 0.70 0.00 92 997.8
20190524121020 53 112 11.0 11.0 0.00 0.70 0.00 92 997.8
20190524115020 53 180 8.0 8.0 0.00 0.62 0.00 92 998.8
20190524112020 53 68 3.0 3.0 0.00 0.62 0.00 92 999.8
20190524105020 52 135 9.0 9.0 0.00 0.62 0.00 92 998.8
20190524100020 52 158 9.0 9.0 0.00 0.58 0.00 91 999.8
20190524095020 52 68 10.0 10.0 0.00 0.58 0.00 91 1000.8
20190524092020 52 90 5.0 5.0 0.00 0.37 0.00 90 1002.8
20190524090019 52 135 2.0 2.0 0.00 0.37 0.00 89 1001.8
20190524084019 52 68 3.0 3.0 0.00 0.25 0.00 89 1002.8
20190524082019 52 112 4.0 4.0 0.00 0.25 0.00 88 1002.8
20190524081019 52 68 3.0 3.0 0.00 0.25 0.00 88 1001.8
20190524080019 52 112 3.0 3.0 0.00 0.25 0.00 88 1001.8
20190524075019 52 90 3.0 5.0 0.00 0.25 0.00 88 1002.8
20190524074019 52 112 4.0 4.0 0.00 0.08 0.00 87 1001.8
20190524073019 52 112 7.0 7.0 0.00 0.08 0.00 87 1001.8
20190524072019 52 68 5.0 5.0 0.00 0.08 0.00 86 1002.8
20190524065019 53 68 0.0 0.0 0.00 0.08 0.00 81 1004.8
20190524063018 54 68 0.0 0.0 0.00 0.00 0.00 79 1004.8
20190524061018 54 180 0.0 0.0 0.00 0.00 0.00 78 1005.8
20190524055018 55 202 2.0 4.0 0.00 0.00 0.00 74 1003.8
20190524050018 55 68 0.0 0.0 0.00 0.00 0.00 71 1003.8
20190524043018 55 180 0.0 0.0 0.00 0.00 4.50 71 1003.8
20190524042018 56 22 2.0 3.0 0.00 0.00 4.50 70 1004.8
20190524041018 56 202 0.0 0.0 0.00 0.00 4.50 70 1005.8
20190524040018 56 90 0.0 0.0 0.00 0.00 4.50 69 1005.8
20190524035018 56 68 0.0 0.0 0.00 0.00 4.50 68 1004.8
20190524033017 56 45 0.0 0.0 0.00 0.00 4.50 67 1003.8
20190524032017 57 68 0.0 2.0 0.00 0.00 4.50 66 1003.8
20190524030017 57 22 6.0 6.0 0.00 0.00 4.50 65 1002.8
20190524023017 57 22 0.0 0.0 0.00 0.00 4.50 65 1002.8
20190524021017 58 22 2.0 2.0 0.00 0.00 4.50 64 1001.8
20190524013017 59 22 0.0 0.0 0.00 0.00 4.50 60 1002.8
20190524012017 60 22 2.0 2.0 0.00 0.00 4.50 59 1003.8
20190524011017 60 292 0.0 0.0 0.00 0.00 4.50 59 1004.8
20190524005017 61 0 1.0 1.0 0.00 0.00 4.50 57 1004.8
20190524004016 61 338 1.0 2.0 0.00 0.00 4.50 57 1004.8
20190524003016 61 338 3.0 3.0 0.00 0.00 4.50 57 1004.8
20190524001016 62 338 3.0 3.0 0.00 0.00 4.50 55 1005.8
20190524000016 62 338 3.0 3.0 0.00 0.00 4.50 55 1005.8
20190523234016 63 292 0.0 5.0 0.00 0.00 4.50 53 1003.8
20190523231016 64 315 2.0 2.0 0.00 0.00 4.50 53 1004.8
20190523230016 64 135 0.0 2.0 0.00 0.00 4.50 52 1004.8
20190523222015 65 248 5.0 7.0 0.00 0.00 4.50 51 1003.8
20190523221015 66 225 3.0 3.0 0.00 0.00 4.50 50 1003.8
20190523215015 67 315 3.0 3.0 0.00 0.00 4.50 51 1003.8
20190523214015 66 338 4.0 4.0 0.00 0.00 4.50 51 1003.8
20190523211015 67 338 3.0 4.0 0.00 0.00 4.50 51 1003.8
20190523210015 67 225 3.0 3.0 0.00 0.00 4.50 50 1003.8
20190523203015 66 248 3.0 5.0 0.00 0.00 4.50 53 1003.8
20190523195015 65 270 4.0 4.0 0.00 0.00 4.50 53 1003.8
20190523194015 64 248 4.0 4.0 0.00 0.00 4.50 54 1003.8
20190523193014 64 315 7.0 7.0 0.00 0.00 4.50 54 1003.8
20190523192015 64 338 3.0 3.0 0.00 0.00 4.50 54 1003.8
20190523190014 64 248 5.0 6.0 0.00 0.00 4.50 58 1003.8
20190523185014 62 22 5.0 5.0 0.00 0.00 4.50 58 1003.8
20190523182014 61 292 2.0 3.0 0.00 0.00 4.50 59 1002.8
20190523175014 60 248 3.0 3.0 0.00 0.00 4.50 61 1002.8
20190523174014 60 292 3.0 3.0 0.00 0.00 4.50 62 1002.8
20190523173014 59 248 5.0 5.0 0.00 0.00 4.50 62 1002.8
20190523171014 59 248 4.0 5.0 0.00 0.00 4.50 61 1003.8
20190523164014 59 338 1.0 2.0 0.00 0.00 4.50 62 1002.8
20190523162013 59 338 4.0 4.0 0.00 0.00 4.50 62 1002.8
20190523161013 58 202 5.0 5.0 0.00 0.00 4.50 66 1002.8
20190523160014 57 292 2.0 2.0 0.00 0.00 4.50 66 1002.8
20190523155013 57 270 2.0 4.0 0.00 0.00 4.50 66 1002.8
20190523154013 58 248 3.0 4.0 0.00 0.00 4.50 67 1002.8
20190523153013 57 248 3.0 3.0 0.00 0.00 4.50 66 1001.8
20190523152013 57 338 3.0 4.0 0.00 0.00 4.50 66 1001.8
20190523151013 57 338 2.0 3.0 0.00 0.00 4.50 65 1000.8
20190523150013 57 158 3.0 3.0 0.00 0.00 4.50 64 1000.8
20190523145013 58 270 4.0 5.0 0.00 0.00 4.50 63 1001.8
20190523143013 58 0 4.0 18.0 0.00 0.00 4.50 62 1000.8
20190523142013 58 22 6.0 7.0 0.00 0.00 4.50 62 1000.8
20190523141013 58 22 4.0 4.0 0.00 0.00 4.50 63 1000.8
20190523133012 56 248 10.0 10.0 0.00 0.00 4.50 72 1000.8
20190523131012 54 292 4.0 4.0 0.00 0.00 4.50 78 999.8
20190523130012 54 270 4.0 4.0 0.00 0.00 4.50 80 999.8